STARLINK-31500, 59305

Orbit data source: Space-Track

STARLINK-31500, 59305 is a payload satellite owned by SpaceX/Seattle (US) in LEO that was launched on Sun, 24 Mar 2024 UTC via an FALCON 9 launch vehicle from the Air Force Eastern Test Range (AFETR). Payload-class satellites include a variety of spacecraft equipped with specific instruments for various scientific and technological missions. These include communications satellites like Starlink; space stations such as the ISS; scientific satellites like the Hubble; Earth observation satellites from companies like Planet Labs, Umbra, and HawkEye 360; GPS; miniature CubeSats for education and research; and military/defense satellites.

Loading next visibility...
Identifier
59305, 2024-056K
Orbit
LEO
Country
Flag of USUS
Related business
Manufacturer
SpaceX/Seattle
Mission
Operational Commercial Communications
Bus & Motor
STARLINK V2M, Unknown motor
Mass
730 kg wet, ~700 kg dry
Launch date (UTC)
2024-03-24 (2 years ago)
Launch vehicle
FALCON 9
Launch site
Air Force Eastern Test Range (AFETR)
Object type
Payload
Rocket body
Debris
Shape & HBR
Box + 2 Pan, 17.7 m
Radar Cross Section
33.884 m², Large (>1 m²)

Expand to show TLE details & history
Last TLE update: 3 days ago

TLE from 3 days ago
0 STARLINK-31500
1 59305U 24056K   26170.62728590  .00000235  00000-0  18056-4 0  9998
2 59305  43.0049  15.0832 0001211 273.3410  86.7303 15.27572975126745
Epoch: 2026-06-19T15:03Z
TLE epoch observation values (Epoch: 2026-06-19T15:03:17.501Z)
Latitude
-0.00004°
Longitude
-118.59331°
Altitude
482.799 km
Speed
7.626 km/s
True Right ascension
01h 00m 19s
True Declination
0° 00' 00"
Sunlit
Object was in daylight at epoch
Visualization orbit readout
Latitude
Unknown
Longitude
Unknown
Altitude
Unknown
Speed
Unknown
Apparent Right ascension
Unknown
Apparent Declination
Unknown
Sunlit
N/A
Visualization observer readout
Local Sidereal Time
21:30:42
Azimuth
Unknown
Elevation
Unknown
Doppler factor
Unknown
Orbital elements
Apogee altitude
485.846 km
Perigee altitude
484.183 km
Semi-major axis
6,863.151 km
Eccentricity
0.00012
Inclination
43.0049°
RAAN
15.0832°
Arg. of periapsis
273.341°
True anomaly
86.74415°
Mean anomaly
86.7303°
Eccentric anomaly
86.73723°
Mean motion
3.81731 °/min
Orbital period
94.31 mins
BSTAR
0.000018056
Loading maneuver chart data...
Computing Atmospheric mass density...
Loading historical data...
Loading historical data...
Loading historical data...
Loading historical data...
Loading historical data...
Loading historical data...
Loading historical data...

Documentation

Showing up to 5 results
|